Home   Weather   Lausanne   Past weeks

Flag for Switzerland Past Weather in Lausanne, Vaud, Switzerland — Yesterday and Last 2 Weeks

Now
17 °F

Cold.


Feels Like: N/A
Forecast: 24 / 40 °F
Wind: N/A

Location: Aigle

Current Time: Jan 21, 2017 at 6:52:38 pm

Latest Report: Jan 21, 2017 at 6:00 pm


Visibility: N/A

Pressure: 30.40 "Hg

Humidity: 100%

Dew Point: 17 °F

Location of LausanneLocation

Past Weather in Lausanne — Graph

°F

Lausanne Temperature Yesterday

Maximum temperature yesterday: 29 °F (at 3:00 pm)
Minimum temperature yesterday: 3 °F (at 8:00 am)
Average temperature yesterday: 16 °F

High & Low Weather Summary for the Past Weeks

 TemperatureHumidityPressure
High46 °F (Jan 13, 2:00 am)100% (Jan 8, 6:00 pm)30.66 "Hg (Jan 8, 6:00 pm)
Low3 °F (Jan 18, 9:00 am)47% (Jan 13, 3:00 am)29.67 "Hg (Jan 13, 12:00 am)
Average25 °F85%30.28 "Hg
* Reported Jan 6 5:00 pm — Jan 21 5:00 pm, Lausanne, Weather by CustomWeather, © 2017

Note: Actual official high and low records may vary slightly from our data, if they occured in-between our weather recording intervals... More about our weather records

Advertising

Lausanne Weather History for the Previous 24 Hours

Scroll right to see more
 ConditionsComfort  
Time TempWeatherWind HumidityBarometerVisibility
5:00 pm
Sat, Jan 21
20 °FCold.N/A100%30.39 "HgN/A
4:00 pm24 °FFog.2 mph88%30.39 "Hg5 mi
3:00 pm31 °FChilly.2 mph81%30.37 "HgN/A
2:00 pm32 °FChilly.3 mph78%30.38 "HgN/A
1:00 pm29 °FFog.1 mph83%30.41 "Hg4 mi
12:00 pm25 °FChilly.1 mph86%30.45 "HgN/A
11:00 am23 °FCold.3 mph90%30.47 "HgN/A
10:00 am11 °FFog.1 mph100%30.51 "Hg4 mi
9:00 am14 °FCold.2 mph92%30.50 "HgN/A
8:00 am7 °FFrigid.1 mph100%30.53 "HgN/A
7:00 am7 °FFog.2 mph96%30.52 "Hg2 mi
6:00 am12 °FCold.1 mph100%30.51 "HgN/A
5:00 am11 °FCold.2 mph91%30.52 "HgN/A
4:00 am9 °FFog.1 mph99%30.53 "Hg5 mi
3:00 am10 °FCold.1 mph93%30.53 "HgN/A
2:00 am12 °FCold.1 mph100%30.53 "HgN/A
1:00 am9 °FFrigid.1 mph99%30.54 "HgN/A
12:00 am11 °FCold.1 mph100%30.53 "HgN/A
11:00 pm
Fri, Jan 20
15 °FCold.1 mph100%30.52 "HgN/A
10:00 pm14 °FCold.1 mph100%30.52 "HgN/A
9:00 pm19 °FCold.2 mph100%30.51 "HgN/A
8:00 pm19 °FCold.2 mph97%30.50 "HgN/A
7:00 pm19 °FFog.2 mph97%30.50 "Hg2 mi
6:00 pm19 °FCold.1 mph97%30.50 "HgN/A
Weather by CustomWeather, © 2017

See weather overviewHow to use our weather pages